PCK215 LESU-LFMD

Flight info

Callsign PCK215
Flight time N/A
Altitude 14000
Route GEANT/N0148F130 DCT ABLAK
Aircraft C208/L-SDF/C

Departure

Time 2026-04-23 12:10
Airport Pirineus - la Seu d'Urgel Airport (LESU)

Arrival

Time N/A
Airport Cannes Mandelieu Airport (LFMD)
Time Latitude Longitude Altitude Speed Heading
2026-04-23 12:04 42.33726 1.40387 2637 ft 0 kts 211°
2026-04-23 12:04 42.33726 1.40386 2637 ft 0 kts 211°
2026-04-23 12:05 42.33701 1.40383 2637 ft 9 kts 122°
2026-04-23 12:05 42.33673 1.40449 2636 ft 5 kts 122°
2026-04-23 12:05 42.33662 1.40478 2636 ft 4 kts 102°
2026-04-23 12:05 42.33650 1.40544 2638 ft 11 kts 120°
2026-04-23 12:06 42.33628 1.40676 2637 ft 21 kts 31°
2026-04-23 12:06 42.33778 1.40803 2636 ft 30 kts 37°
2026-04-23 12:06 42.34214 1.41163 2637 ft 42 kts 30°
2026-04-23 12:07 42.34474 1.41389 2636 ft 44 kts 47°
2026-04-23 12:07 42.34596 1.41526 2636 ft 4 kts 268°
2026-04-23 12:07 42.34598 1.41511 2636 ft 0 kts 287°
2026-04-23 12:07 42.34603 1.41489 2636 ft 5 kts 279°
2026-04-23 12:08 42.34559 1.41434 2637 ft 19 kts 212°
2026-04-23 12:08 42.34331 1.41244 2637 ft 58 kts 211°
2026-04-23 12:08 42.33897 1.40891 2637 ft 86 kts 211°
2026-04-23 12:08 42.33351 1.40438 2650 ft 103 kts 213°
2026-04-23 12:09 42.32689 1.39808 2533 ft 123 kts 217°
2026-04-23 12:09 42.32092 1.39223 2989 ft 101 kts 215°
2026-04-23 12:09 42.31415 1.38595 2912 ft 131 kts 216°
2026-04-23 12:09 42.30633 1.37939 3118 ft 132 kts 210°
2026-04-23 12:10 42.29882 1.37255 3333 ft 129 kts 218°
2026-04-23 12:10 42.29162 1.36521 3542 ft 131 kts 217°
2026-04-23 12:10 42.28355 1.35918 3749 ft 135 kts 197°
2026-04-23 12:10 42.27438 1.35567 3949 ft 136 kts 196°
2026-04-23 12:11 42.26554 1.35176 4147 ft 135 kts 197°
2026-04-23 12:11 42.25665 1.34795 4347 ft 135 kts 197°
2026-04-23 12:11 42.24753 1.34435 4550 ft 137 kts 196°
2026-04-23 12:11 42.23841 1.34082 4776 ft 134 kts 195°
2026-04-23 12:12 42.22952 1.33713 5032 ft 135 kts 195°
2026-04-23 12:12 42.22028 1.33410 5282 ft 137 kts 192°
2026-04-23 12:12 42.21116 1.33076 5525 ft 136 kts 192°
2026-04-23 12:12 42.20216 1.32716 5758 ft 134 kts 192°
2026-04-23 12:13 42.19322 1.32335 6002 ft 135 kts 193°
2026-04-23 12:13 42.18426 1.31947 6250 ft 135 kts 192°
2026-04-23 12:13 42.17520 1.31561 6501 ft 136 kts 193°
2026-04-23 12:13 42.16614 1.31180 6751 ft 137 kts 193°
2026-04-23 12:14 42.15723 1.30811 6996 ft 136 kts 192°
2026-04-23 12:14 42.14809 1.30439 7247 ft 137 kts 193°
2026-04-23 12:14 42.13895 1.30071 7486 ft 136 kts 192°
2026-04-23 12:14 42.13005 1.29720 7724 ft 131 kts 192°
2026-04-23 12:15 42.12153 1.29385 7969 ft 125 kts 192°
2026-04-23 12:15 42.11309 1.29062 8197 ft 127 kts 192°
2026-04-23 12:15 42.10473 1.28680 8442 ft 126 kts 200°
2026-04-23 12:15 42.09685 1.28180 8686 ft 125 kts 202°
2026-04-23 12:16 42.08892 1.27679 8833 ft 126 kts 202°
2026-04-23 12:16 42.08113 1.27189 8978 ft 122 kts 202°
2026-04-23 12:16 42.07342 1.26712 9111 ft 121 kts 202°
2026-04-23 12:16 42.06578 1.26238 9246 ft 119 kts 202°
2026-04-23 12:17 42.05833 1.25787 9384 ft 116 kts 202°
2026-04-23 12:17 42.05099 1.25355 9514 ft 114 kts 202°
2026-04-23 12:17 42.04381 1.24932 9652 ft 113 kts 202°
2026-04-23 12:17 42.03653 1.24553 9778 ft 111 kts 185°
2026-04-23 12:18 42.02984 1.24917 9909 ft 105 kts 136°
2026-04-23 12:18 42.02628 1.25738 10003 ft 104 kts 98°
2026-04-23 12:18 42.02731 1.26692 10083 ft 105 kts 60°
2026-04-23 12:18 42.03117 1.27529 10169 ft 106 kts 60°
2026-04-23 12:19 42.03489 1.28391 10251 ft 107 kts 59°
2026-04-23 12:19 42.03870 1.29262 10337 ft 109 kts 59°
2026-04-23 12:19 42.04257 1.30142 10422 ft 109 kts 59°
2026-04-23 12:19 42.04641 1.31029 10509 ft 112 kts 60°
2026-04-23 12:20 42.05034 1.31933 10594 ft 113 kts 59°
2026-04-23 12:20 42.05434 1.32854 10678 ft 113 kts 60°
2026-04-23 12:20 42.05828 1.33770 10753 ft 115 kts 60°
2026-04-23 12:20 42.06234 1.34701 10838 ft 118 kts 60°
2026-04-23 12:21 42.06651 1.35666 10925 ft 120 kts 61°
2026-04-23 12:21 42.07070 1.36637 11006 ft 121 kts 60°
2026-04-23 12:21 42.07499 1.37628 11086 ft 123 kts 60°
2026-04-23 12:21 42.07933 1.38634 11170 ft 125 kts 60°
2026-04-23 12:22 42.08225 1.39309 11225 ft 126 kts 59°
2026-04-23 12:22 42.08671 1.40341 11312 ft 127 kts 58°
2026-04-23 12:22 42.09117 1.41371 11394 ft 127 kts 58°
2026-04-23 12:22 42.09569 1.42416 11478 ft 132 kts 58°
2026-04-23 12:23 42.10031 1.43489 11566 ft 133 kts 58°
2026-04-23 12:23 42.10499 1.44575 11651 ft 135 kts 58°
2026-04-23 12:23 42.10972 1.45672 11723 ft 137 kts 58°
2026-04-23 12:23 42.11448 1.46780 11812 ft 136 kts 57°
2026-04-23 12:24 42.11926 1.47883 11898 ft 136 kts 57°
2026-04-23 12:24 42.12405 1.48997 11966 ft 137 kts 57°
2026-04-23 12:24 42.12880 1.50099 12025 ft 135 kts 57°
2026-04-23 12:24 42.13350 1.51186 12098 ft 134 kts 57°
2026-04-23 12:25 42.13813 1.52265 12174 ft 134 kts 57°
2026-04-23 12:25 42.14291 1.53372 12180 ft 139 kts 57°
2026-04-23 12:25 42.14774 1.54498 12198 ft 142 kts 57°
2026-04-23 12:25 42.15273 1.55657 12192 ft 143 kts 57°
2026-04-23 12:26 42.15772 1.56820 12196 ft 144 kts 57°
2026-04-23 12:26 42.16280 1.58004 12194 ft 146 kts 57°
2026-04-23 12:26 42.16797 1.59206 12195 ft 150 kts 57°
2026-04-23 12:26 42.17319 1.60426 12196 ft 151 kts 57°
2026-04-23 12:27 42.17844 1.61650 12194 ft 151 kts 57°
2026-04-23 12:27 42.18378 1.62885 12193 ft 153 kts 58°
2026-04-23 12:27 42.18914 1.64131 12192 ft 153 kts 57°
2026-04-23 12:27 42.19442 1.65375 12193 ft 153 kts 58°
2026-04-23 12:28 42.19976 1.66629 12191 ft 153 kts 58°
2026-04-23 12:28 42.20510 1.67870 12190 ft 153 kts 58°
2026-04-23 12:28 42.21040 1.69110 12185 ft 152 kts 58°
2026-04-23 12:28 42.21574 1.70350 12187 ft 154 kts 57°
2026-04-23 12:29 42.22103 1.71580 12193 ft 152 kts 58°
2026-04-23 12:29 42.22638 1.72839 12192 ft 152 kts 58°
2026-04-23 12:29 42.23161 1.74066 12189 ft 152 kts 58°
2026-04-23 12:29 42.23686 1.75303 12191 ft 153 kts 58°
2026-04-23 12:30 42.24217 1.76541 12192 ft 153 kts 58°
2026-04-23 12:30 42.24746 1.77783 12186 ft 152 kts 58°
2026-04-23 12:30 42.25269 1.79000 12185 ft 152 kts 58°
2026-04-23 12:30 42.25793 1.80237 12189 ft 152 kts 58°
2026-04-23 12:31 42.26328 1.81479 12189 ft 154 kts 57°
2026-04-23 12:31 42.26855 1.82723 12192 ft 155 kts 58°
2026-04-23 12:31 42.27390 1.83981 12214 ft 152 kts 57°
2026-04-23 12:31 42.27901 1.85176 12287 ft 143 kts 57°
2026-04-23 12:32 42.28391 1.86336 12349 ft 141 kts 58°
2026-04-23 12:32 42.28878 1.87494 12415 ft 142 kts 58°
2026-04-23 12:32 42.29371 1.88637 12482 ft 139 kts 57°
2026-04-23 12:32 42.29854 1.89768 12548 ft 138 kts 57°
2026-04-23 12:33 42.30329 1.90886 12616 ft 137 kts 57°
2026-04-23 12:33 42.30805 1.92009 12682 ft 136 kts 57°
2026-04-23 12:33 42.31275 1.93114 12746 ft 135 kts 57°
2026-04-23 12:33 42.31744 1.94220 12813 ft 136 kts 57°
2026-04-23 12:34 42.32213 1.95327 12882 ft 135 kts 57°
2026-04-23 12:34 42.32676 1.96422 12955 ft 133 kts 57°
2026-04-23 12:34 42.33133 1.97495 13022 ft 134 kts 57°
2026-04-23 12:34 42.33594 1.98586 13095 ft 135 kts 56°
2026-04-23 12:35 42.34060 1.99686 13173 ft 135 kts 56°
2026-04-23 12:35 42.34529 2.00795 13249 ft 135 kts 56°
2026-04-23 12:35 42.34994 2.01892 13327 ft 135 kts 56°
2026-04-23 12:35 42.35460 2.02994 13405 ft 135 kts 56°
2026-04-23 12:36 42.35925 2.04096 13483 ft 135 kts 56°
2026-04-23 12:36 42.36393 2.05203 13562 ft 136 kts 56°
2026-04-23 12:36 42.36865 2.06319 13641 ft 138 kts 56°
2026-04-23 12:36 42.37342 2.07448 13718 ft 139 kts 56°
2026-04-23 12:37 42.37823 2.08585 13806 ft 140 kts 56°
2026-04-23 12:37 42.38307 2.09735 13886 ft 141 kts 56°
2026-04-23 12:37 42.38797 2.10892 13966 ft 143 kts 56°
2026-04-23 12:37 42.39292 2.12076 14045 ft 145 kts 56°
2026-04-23 12:38 42.39790 2.13257 14119 ft 143 kts 56°
2026-04-23 12:38 42.40270 2.14391 14187 ft 138 kts 56°
2026-04-23 12:38 42.40749 2.15527 14207 ft 140 kts 55°
2026-04-23 12:38 42.41241 2.16694 14213 ft 144 kts 56°
2026-04-23 12:39 42.41741 2.17893 14227 ft 149 kts 56°
2026-04-23 12:39 42.42273 2.19145 14223 ft 156 kts 56°
2026-04-23 12:39 42.42814 2.20436 14224 ft 159 kts 56°
2026-04-23 12:39 42.43361 2.21757 14222 ft 162 kts 59°
2026-04-23 12:40 42.43836 2.23143 14221 ft 164 kts 61°
2026-04-23 12:40 42.44331 2.24538 14222 ft 164 kts 60°
2026-04-23 12:40 42.44828 2.25941 14218 ft 166 kts 60°
2026-04-23 12:40 42.45323 2.27347 14217 ft 165 kts 60°
2026-04-23 12:41 42.45811 2.28740 14215 ft 163 kts 60°
2026-04-23 12:41 42.46298 2.30123 14215 ft 163 kts 60°
2026-04-23 12:41 42.46775 2.31492 14215 ft 161 kts 60°
2026-04-23 12:41 42.47259 2.32867 14212 ft 162 kts 60°
2026-04-23 12:42 42.47740 2.34246 14211 ft 162 kts 60°
2026-04-23 12:42 42.48218 2.35614 14215 ft 160 kts 60°
2026-04-23 12:42 42.48699 2.36983 14212 ft 160 kts 60°
2026-04-23 12:42 42.49175 2.38346 14212 ft 160 kts 60°
2026-04-23 12:43 42.49653 2.39712 14213 ft 160 kts 60°
2026-04-23 12:43 42.50130 2.41081 14213 ft 161 kts 60°
2026-04-23 12:43 42.50604 2.42444 14213 ft 159 kts 60°
2026-04-23 12:43 42.51074 2.43788 14215 ft 156 kts 60°
2026-04-23 12:44 42.51538 2.45118 14217 ft 157 kts 60°
2026-04-23 12:44 42.52003 2.46460 14230 ft 157 kts 60°
2026-04-23 12:44 42.52468 2.47799 14225 ft 156 kts 60°
2026-04-23 12:44 42.52932 2.49128 14225 ft 155 kts 59°
2026-04-23 12:45 42.53395 2.50453 14225 ft 156 kts 60°
2026-04-23 12:45 42.53857 2.51778 14229 ft 158 kts 60°
2026-04-23 12:45 42.54321 2.53119 14234 ft 158 kts 60°
2026-04-23 12:45 42.54791 2.54472 14233 ft 159 kts 60°
2026-04-23 12:46 42.55263 2.55832 14235 ft 160 kts 60°
2026-04-23 12:46 42.55735 2.57194 14237 ft 159 kts 60°
2026-04-23 12:46 42.56206 2.58549 14232 ft 158 kts 60°
2026-04-23 12:46 42.56673 2.59898 14233 ft 158 kts 60°
2026-04-23 12:47 42.57142 2.61247 14232 ft 158 kts 60°
2026-04-23 12:47 42.57611 2.62602 14234 ft 159 kts 60°
2026-04-23 12:47 42.58081 2.63961 14236 ft 159 kts 60°
2026-04-23 12:47 42.58552 2.65322 14236 ft 159 kts 60°
2026-04-23 12:48 42.59023 2.66685 14237 ft 159 kts 60°
2026-04-23 12:48 42.59494 2.68046 14238 ft 159 kts 60°
2026-04-23 12:48 42.59965 2.69411 14237 ft 159 kts 60°
2026-04-23 12:48 42.60434 2.70767 14238 ft 159 kts 60°
2026-04-23 12:49 42.60904 2.72132 14237 ft 159 kts 60°
2026-04-23 12:49 42.61373 2.73490 14236 ft 158 kts 60°
2026-04-23 12:49 42.61840 2.74843 14236 ft 158 kts 60°
2026-04-23 12:49 42.62308 2.76199 14235 ft 159 kts 60°
2026-04-23 12:50 42.62777 2.77559 14237 ft 159 kts 60°
2026-04-23 12:50 42.63240 2.78907 14238 ft 159 kts 60°
2026-04-23 12:50 42.63709 2.80267 14238 ft 159 kts 60°
2026-04-23 12:50 42.64177 2.81628 14239 ft 159 kts 60°
2026-04-23 12:51 42.64646 2.82995 14239 ft 159 kts 60°
2026-04-23 12:51 42.65116 2.84359 14239 ft 159 kts 60°
2026-04-23 12:51 42.65583 2.85720 14240 ft 159 kts 60°
2026-04-23 12:51 42.66054 2.87091 14240 ft 160 kts 60°
2026-04-23 12:52 42.66522 2.88457 14240 ft 159 kts 60°
2026-04-23 12:52 42.66990 2.89822 14240 ft 159 kts 60°
2026-04-23 12:52 42.67460 2.91189 14240 ft 160 kts 60°
2026-04-23 12:52 42.67927 2.92554 14239 ft 159 kts 60°
2026-04-23 12:53 42.68395 2.93920 14239 ft 159 kts 60°
2026-04-23 12:53 42.68864 2.95288 14238 ft 159 kts 60°
2026-04-23 12:53 42.69325 2.96637 14238 ft 159 kts 60°
2026-04-23 12:53 42.69792 2.98003 14239 ft 159 kts 60°
2026-04-23 12:54 42.70258 2.99370 14239 ft 159 kts 60°
2026-04-23 12:54 42.70726 3.00736 14238 ft 159 kts 60°
2026-04-23 12:54 42.71192 3.02099 14237 ft 159 kts 60°
2026-04-23 12:54 42.71657 3.03466 14236 ft 159 kts 60°
2026-04-23 12:55 42.72121 3.04825 14236 ft 159 kts 60°
2026-04-23 12:55 42.72587 3.06189 14236 ft 159 kts 60°
2026-04-23 12:55 42.73050 3.07551 14236 ft 159 kts 60°
2026-04-23 12:55 42.73514 3.08912 14236 ft 158 kts 60°
2026-04-23 12:56 42.73978 3.10273 14235 ft 158 kts 60°
2026-04-23 12:56 42.74439 3.11631 14234 ft 158 kts 60°
2026-04-23 12:56 42.74901 3.12989 14234 ft 158 kts 60°
2026-04-23 12:56 42.75362 3.14345 14233 ft 158 kts 60°
2026-04-23 12:57 42.75823 3.15703 14233 ft 158 kts 60°
2026-04-23 12:57 42.76286 3.17065 14233 ft 158 kts 60°
2026-04-23 12:57 42.76747 3.18424 14233 ft 158 kts 60°
2026-04-23 12:57 42.77208 3.19782 14232 ft 158 kts 60°
2026-04-23 12:58 42.77669 3.21141 14232 ft 158 kts 60°
2026-04-23 12:58 42.78129 3.22498 14231 ft 158 kts 60°
2026-04-23 12:58 42.78584 3.23841 14232 ft 158 kts 60°
2026-04-23 12:58 42.79044 3.25200 14232 ft 158 kts 60°
2026-04-23 12:59 42.79504 3.26559 14232 ft 158 kts 60°
2026-04-23 12:59 42.79963 3.27916 14232 ft 158 kts 60°
2026-04-23 12:59 42.80424 3.29279 14232 ft 158 kts 60°
2026-04-23 12:59 42.80883 3.30638 14232 ft 158 kts 60°
2026-04-23 13:00 42.81343 3.32001 14232 ft 158 kts 59°
2026-04-23 13:00 42.81802 3.33360 14231 ft 158 kts 59°
2026-04-23 13:00 42.82261 3.34721 14231 ft 158 kts 59°
2026-04-23 13:00 42.82719 3.36079 14232 ft 158 kts 60°
2026-04-23 13:01 42.83176 3.37435 14252 ft 157 kts 59°
2026-04-23 13:01 42.83632 3.38788 14252 ft 158 kts 59°
2026-04-23 13:01 42.84089 3.40145 14258 ft 158 kts 60°
2026-04-23 13:01 42.84548 3.41510 14257 ft 158 kts 60°
2026-04-23 13:02 42.85002 3.42856 14261 ft 158 kts 59°
2026-04-23 13:02 42.85459 3.44217 14258 ft 158 kts 60°
2026-04-23 13:02 42.85916 3.45577 14255 ft 158 kts 60°
2026-04-23 13:02 42.86372 3.46937 14256 ft 158 kts 60°
2026-04-23 13:03 42.86829 3.48296 14252 ft 158 kts 60°
2026-04-23 13:03 42.87287 3.49662 14252 ft 158 kts 60°
2026-04-23 13:03 42.87743 3.51021 14252 ft 158 kts 60°
2026-04-23 13:03 42.88199 3.52379 14252 ft 157 kts 60°
2026-04-23 13:04 42.88652 3.53735 14251 ft 157 kts 60°
2026-04-23 13:04 42.89109 3.55096 14251 ft 157 kts 60°
2026-04-23 13:04 42.89558 3.56439 14251 ft 157 kts 60°
2026-04-23 13:04 42.90013 3.57797 14251 ft 157 kts 60°
2026-04-23 13:05 42.90467 3.59157 14250 ft 157 kts 60°
2026-04-23 13:05 42.90922 3.60518 14251 ft 157 kts 60°
2026-04-23 13:05 42.91375 3.61876 14251 ft 157 kts 60°
2026-04-23 13:05 42.91829 3.63234 14262 ft 157 kts 60°
2026-04-23 13:06 42.92734 3.65948 14265 ft 157 kts 60°
2026-04-23 13:06 42.93187 3.67306 14263 ft 157 kts 60°
2026-04-23 13:06 42.93641 3.68666 14266 ft 157 kts 60°
2026-04-23 13:07 42.94087 3.70007 14258 ft 157 kts 60°
2026-04-23 13:07 42.94539 3.71365 14265 ft 157 kts 60°
2026-04-23 13:07 42.94992 3.72726 14265 ft 157 kts 60°
2026-04-23 13:07 42.95443 3.74083 14264 ft 157 kts 60°
2026-04-23 13:08 42.95895 3.75443 14265 ft 157 kts 60°
2026-04-23 13:08 42.96347 3.76806 14266 ft 157 kts 60°
2026-04-23 13:08 42.96800 3.78168 14260 ft 157 kts 60°
2026-04-23 13:08 42.97251 3.79528 14259 ft 157 kts 60°
2026-04-23 13:09 42.97703 3.80889 14262 ft 157 kts 60°
2026-04-23 13:09 42.98153 3.82246 14262 ft 157 kts 60°
2026-04-23 13:09 42.98605 3.83609 14258 ft 157 kts 60°
2026-04-23 13:09 42.99055 3.84969 14272 ft 157 kts 60°
2026-04-23 13:10 42.99352 3.85869 14261 ft 157 kts 60°
2026-04-23 13:10 42.99801 3.87223 14269 ft 156 kts 60°
2026-04-23 13:10 43.00249 3.88576 14268 ft 156 kts 60°
2026-04-23 13:10 43.00698 3.89932 14264 ft 157 kts 61°
2026-04-23 13:11 43.01147 3.91292 14263 ft 157 kts 60°
2026-04-23 13:11 43.01595 3.92652 14258 ft 157 kts 60°
2026-04-23 13:11 43.02045 3.94013 14257 ft 157 kts 60°
2026-04-23 13:11 43.02494 3.95375 14257 ft 157 kts 61°
2026-04-23 13:12 43.02943 3.96735 14265 ft 157 kts 61°
2026-04-23 13:12 43.03389 3.98089 14272 ft 156 kts 61°
2026-04-23 13:12 43.03834 3.99441 14270 ft 156 kts 61°
2026-04-23 13:12 43.04276 4.00781 14267 ft 156 kts 61°
2026-04-23 13:13 43.04720 4.02135 14273 ft 156 kts 61°
2026-04-23 13:13 43.05165 4.03485 14271 ft 155 kts 61°
2026-04-23 13:13 43.05609 4.04834 14272 ft 155 kts 61°
2026-04-23 13:13 43.06048 4.06174 14280 ft 155 kts 61°
2026-04-23 13:14 43.06490 4.07518 14274 ft 155 kts 61°
2026-04-23 13:14 43.06929 4.08857 14279 ft 154 kts 61°
2026-04-23 13:14 43.07369 4.10193 14270 ft 154 kts 61°
2026-04-23 13:14 43.07810 4.11537 14269 ft 155 kts 61°
2026-04-23 13:15 43.08249 4.12880 14276 ft 154 kts 61°
2026-04-23 13:15 43.08689 4.14220 14269 ft 154 kts 61°
2026-04-23 13:15 43.09126 4.15558 14273 ft 154 kts 61°
2026-04-23 13:15 43.09565 4.16898 14268 ft 154 kts 61°
2026-04-23 13:16 43.10004 4.18240 14273 ft 154 kts 61°
2026-04-23 13:16 43.10442 4.19579 14267 ft 154 kts 61°
2026-04-23 13:16 43.10876 4.20906 14267 ft 154 kts 61°
2026-04-23 13:16 43.11318 4.22260 14274 ft 154 kts 61°
2026-04-23 13:17 43.11755 4.23598 14267 ft 154 kts 61°
2026-04-23 13:17 43.12187 4.24922 14273 ft 154 kts 61°
2026-04-23 13:17 43.12623 4.26259 14267 ft 154 kts 61°
2026-04-23 13:17 43.13059 4.27597 14267 ft 154 kts 61°
2026-04-23 13:18 43.13494 4.28931 14275 ft 154 kts 61°
2026-04-23 13:18 43.13929 4.30268 14272 ft 154 kts 62°
2026-04-23 13:18 43.14364 4.31604 14269 ft 154 kts 61°
2026-04-23 13:18 43.14800 4.32943 14266 ft 154 kts 61°
2026-04-23 13:19 43.15235 4.34279 14272 ft 154 kts 62°
2026-04-23 13:19 43.15669 4.35618 14252 ft 154 kts 62°
2026-04-23 13:19 43.16107 4.36964 14253 ft 154 kts 62°
2026-04-23 13:19 43.16541 4.38304 14253 ft 154 kts 62°
2026-04-23 13:20 43.16977 4.39644 14265 ft 154 kts 62°
2026-04-23 13:20 43.17409 4.40977 14261 ft 153 kts 62°
2026-04-23 13:20 43.17844 4.42318 14252 ft 153 kts 62°
2026-04-23 13:20 43.18271 4.43636 14245 ft 154 kts 62°
2026-04-23 13:21 43.18704 4.44975 14245 ft 153 kts 62°
2026-04-23 13:21 43.19135 4.46305 14245 ft 153 kts 62°
2026-04-23 13:21 43.19568 4.47642 14244 ft 153 kts 62°
2026-04-23 13:21 43.19998 4.48975 14245 ft 153 kts 62°
2026-04-23 13:22 43.20429 4.50308 14245 ft 153 kts 62°
2026-04-23 13:22 43.20861 4.51643 14244 ft 153 kts 62°
2026-04-23 13:22 43.21292 4.52980 14244 ft 153 kts 62°
2026-04-23 13:22 43.21722 4.54311 14244 ft 153 kts 62°
2026-04-23 13:23 43.22152 4.55643 14243 ft 153 kts 62°
2026-04-23 13:23 43.22581 4.56974 14243 ft 153 kts 62°
2026-04-23 13:23 43.23004 4.58287 14242 ft 153 kts 62°
2026-04-23 13:23 43.23433 4.59617 14242 ft 153 kts 62°
2026-04-23 13:24 43.23861 4.60948 14242 ft 152 kts 62°
2026-04-23 13:24 43.24290 4.62282 14242 ft 152 kts 62°
2026-04-23 13:24 43.24718 4.63612 14244 ft 152 kts 62°
2026-04-23 13:24 43.25145 4.64941 14246 ft 152 kts 62°
2026-04-23 13:25 43.25570 4.66265 14246 ft 152 kts 62°
2026-04-23 13:25 43.25997 4.67589 14245 ft 152 kts 63°
2026-04-23 13:25 43.26422 4.68917 14243 ft 152 kts 63°
2026-04-23 13:25 43.26849 4.70249 14242 ft 152 kts 63°
2026-04-23 13:26 43.27274 4.71574 14242 ft 152 kts 63°
2026-04-23 13:26 43.27701 4.72905 14241 ft 152 kts 63°
2026-04-23 13:26 43.28126 4.74231 14241 ft 152 kts 63°
2026-04-23 13:26 43.28553 4.75565 14240 ft 152 kts 63°
2026-04-23 13:27 43.28978 4.76890 14237 ft 152 kts 63°
2026-04-23 13:27 43.29403 4.78218 14235 ft 151 kts 63°
2026-04-23 13:27 43.29824 4.79535 14236 ft 150 kts 63°
2026-04-23 13:27 43.30221 4.80856 14233 ft 151 kts 73°
2026-04-23 13:28 43.30223 4.82290 14238 ft 154 kts 91°
2026-04-23 13:28 43.30160 4.83757 14240 ft 154 kts 88°
2026-04-23 13:28 43.30135 4.85232 14239 ft 155 kts 87°
2026-04-23 13:28 43.30113 4.86706 14240 ft 155 kts 87°
2026-04-23 13:29 43.30093 4.88188 14241 ft 155 kts 87°
2026-04-23 13:29 43.30073 4.89668 14242 ft 155 kts 87°
2026-04-23 13:29 43.30054 4.91150 14245 ft 155 kts 87°
2026-04-23 13:29 43.30034 4.92629 14248 ft 155 kts 87°
2026-04-23 13:30 43.30014 4.94107 14249 ft 155 kts 87°
2026-04-23 13:30 43.29994 4.95587 14248 ft 155 kts 87°
2026-04-23 13:30 43.29974 4.97066 14247 ft 155 kts 87°
2026-04-23 13:30 43.29953 4.98549 14246 ft 155 kts 87°
2026-04-23 13:31 43.29932 5.00029 14246 ft 155 kts 87°
2026-04-23 13:31 43.29911 5.01519 14245 ft 155 kts 87°
2026-04-23 13:31 43.29890 5.02992 14245 ft 154 kts 87°
2026-04-23 13:31 43.29868 5.04463 14248 ft 154 kts 87°
2026-04-23 13:32 43.29847 5.05913 14249 ft 154 kts 87°
2026-04-23 13:32 43.29825 5.07386 14248 ft 154 kts 87°
2026-04-23 13:32 43.29804 5.08856 14247 ft 154 kts 87°
2026-04-23 13:32 43.29782 5.10327 14247 ft 154 kts 87°
2026-04-23 13:33 43.29759 5.11798 14247 ft 154 kts 87°
2026-04-23 13:33 43.29736 5.13271 14246 ft 154 kts 87°
2026-04-23 13:33 43.29715 5.14740 14241 ft 153 kts 87°
2026-04-23 13:33 43.29693 5.16195 14238 ft 153 kts 87°
2026-04-23 13:34 43.29669 5.17655 14239 ft 153 kts 87°
2026-04-23 13:34 43.29647 5.19116 14240 ft 153 kts 87°
2026-04-23 13:34 43.29623 5.20582 14243 ft 153 kts 88°
2026-04-23 13:34 43.29599 5.22043 14246 ft 153 kts 88°
2026-04-23 13:35 43.29576 5.23503 14248 ft 153 kts 88°
2026-04-23 13:35 43.29552 5.24955 14246 ft 153 kts 87°
2026-04-23 13:35 43.29528 5.26415 14246 ft 152 kts 88°
2026-04-23 13:35 43.29503 5.27867 14247 ft 152 kts 88°
2026-04-23 13:36 43.29480 5.29324 14247 ft 152 kts 88°
2026-04-23 13:36 43.29455 5.30778 14246 ft 152 kts 88°
2026-04-23 13:36 43.29431 5.32211 14246 ft 152 kts 88°
2026-04-23 13:36 43.29407 5.33663 14248 ft 152 kts 88°
2026-04-23 13:37 43.29382 5.35112 14248 ft 152 kts 88°
2026-04-23 13:37 43.29357 5.36563 14245 ft 152 kts 88°
2026-04-23 13:37 43.29331 5.38016 14244 ft 153 kts 88°
2026-04-23 13:37 43.29305 5.39476 14243 ft 153 kts 88°
2026-04-23 13:38 43.29280 5.40933 14244 ft 153 kts 88°
2026-04-23 13:38 43.29254 5.42392 14245 ft 153 kts 88°
2026-04-23 13:38 43.29227 5.43852 14245 ft 153 kts 88°
2026-04-23 13:38 43.29204 5.45314 14245 ft 153 kts 88°
2026-04-23 13:39 43.29175 5.46769 14245 ft 153 kts 88°
2026-04-23 13:39 43.29148 5.48227 14247 ft 153 kts 88°
2026-04-23 13:39 43.29120 5.49687 14248 ft 153 kts 88°
2026-04-23 13:39 43.29094 5.51142 14249 ft 152 kts 88°
2026-04-23 13:40 43.29068 5.52586 14248 ft 151 kts 88°
2026-04-23 13:40 43.29041 5.54029 14246 ft 151 kts 88°
2026-04-23 13:40 43.29015 5.55475 14248 ft 152 kts 88°
2026-04-23 13:40 43.28984 5.56923 14250 ft 152 kts 88°
2026-04-23 13:41 43.28958 5.58377 14247 ft 153 kts 88°
2026-04-23 13:41 43.28930 5.59834 14248 ft 153 kts 88°
2026-04-23 13:41 43.28903 5.61277 14247 ft 153 kts 88°
2026-04-23 13:41 43.28874 5.62736 14249 ft 153 kts 88°
2026-04-23 13:42 43.28844 5.64189 14247 ft 152 kts 88°
2026-04-23 13:42 43.28816 5.65640 14245 ft 152 kts 88°
2026-04-23 13:42 43.28786 5.67089 14243 ft 152 kts 89°
2026-04-23 13:42 43.28757 5.68528 14241 ft 150 kts 88°
2026-04-23 13:43 43.28729 5.69954 14240 ft 149 kts 88°
2026-04-23 13:43 43.28701 5.71378 14237 ft 149 kts 88°
2026-04-23 13:43 43.28672 5.72786 14237 ft 149 kts 88°
2026-04-23 13:43 43.28643 5.74211 14237 ft 149 kts 88°
2026-04-23 13:44 43.28613 5.75632 14238 ft 149 kts 88°
2026-04-23 13:44 43.28583 5.77054 14235 ft 149 kts 88°
2026-04-23 13:44 43.28554 5.78480 14235 ft 149 kts 89°
2026-04-23 13:44 43.28524 5.79902 14243 ft 150 kts 88°
2026-04-23 13:45 43.28504 5.80845 14241 ft 149 kts 88°
2026-04-23 13:45 43.28463 5.82758 14243 ft 150 kts 88°
2026-04-23 13:45 43.28434 5.84200 14243 ft 152 kts 89°
2026-04-23 13:45 43.28400 5.85644 14244 ft 151 kts 88°
2026-04-23 13:46 43.28369 5.87088 14246 ft 152 kts 89°
2026-04-23 13:46 43.28337 5.88537 14244 ft 152 kts 88°
2026-04-23 13:46 43.28308 5.89966 14244 ft 152 kts 89°
2026-04-23 13:46 43.28274 5.91427 14241 ft 151 kts 88°
2026-04-23 13:47 43.28243 5.92841 14239 ft 150 kts 88°
2026-04-23 13:47 43.28211 5.94271 14237 ft 149 kts 88°
2026-04-23 13:47 43.28179 5.95695 14235 ft 149 kts 88°
2026-04-23 13:47 43.28147 5.97111 14235 ft 149 kts 88°
2026-04-23 13:48 43.28115 5.98534 14233 ft 149 kts 89°
2026-04-23 13:48 43.28083 5.99954 14232 ft 149 kts 89°
2026-04-23 13:48 43.28050 6.01370 14236 ft 148 kts 88°
2026-04-23 13:48 43.28017 6.02783 14238 ft 147 kts 88°
2026-04-23 13:49 43.27985 6.04184 14237 ft 146 kts 88°
2026-04-23 13:49 43.27953 6.05575 14236 ft 146 kts 88°
2026-04-23 13:49 43.27921 6.06974 14236 ft 147 kts 89°
2026-04-23 13:49 43.27887 6.08380 14234 ft 146 kts 89°
2026-04-23 13:50 43.27853 6.09769 14233 ft 146 kts 88°
2026-04-23 13:50 43.27821 6.11166 14232 ft 146 kts 89°
2026-04-23 13:50 43.27788 6.12561 14232 ft 146 kts 89°